Погода в Купертино

США     37°19′21″N   122°01′55″W
темп.,
°C
ветер,
м/с
пор.,
м/с
влажн.,
%
обл.,
%
осадки,
мм/ч
давл.,
гПа
погр.,
м
19 апреля, пн
пн1923:00+14з113765 0.0 102028
02:00+11юз114857 0.0 101920
05:00+10юз1153100 0.0 101915
08:00+12з01625 0.0 1020155
11:00+22ссз11320 0.0 1019669
14:00+26сз43259 0.0 10171163
17:00+21сз45316 0.0 1017701
20:00+12зсз3362100 0.0 1018180
20 апреля, вт
вт2023:00+9зюз22802 0.0 101895
02:00+8ююз12907 0.0 101768
05:00+7ююз129192 0.0 101679
08:00+10ююз1283100 0.0 1015276
11:00+19зюз12435 0.0 1013730
14:00+22зсз44330 0.0 10111212
17:00+15зсз45532 0.0 1011749
20:00+9зсз138515 0.0 1012281
21 апреля, ср
ср2123:00+8ююз22891 0.0 101171
02:00+8ююз22902 0.0 101169
05:00+7ю229316 0.0 101169
08:00+10ю22823 0.0 1012190
11:00+20ссз23370 0.0 1011946
14:00+24ссз34230 0.0 10091614
17:00+23зсз34260 0.0 10081219
20:00+13ююз13672 0.0 1010102
22 апреля, чт
чт2223:00+9ю238941 0.0 1012163
02:00+8ю239017 0.0 101298
05:00+7ююз22919 0.0 101268
08:00+10ю23815 0.0 1013215
11:00+21ю11399 0.0 1013672
14:00+26зюз02265 0.0 10111488
17:00+24зюз13320 0.0 10101041
20:00+13ююз23730 0.0 1013130
23 апреля, пт
пт2323:00+9ю238823 0.0 1014128
02:00+8ююз2290100 0.0 1014105
05:00+7ююз229064 0.0 101496
08:00+9ю228286 0.0 1015261
11:00+19юз11420 0.0 1014837
14:00+24зюз12310 0.0 10121259
17:00+22з22365 0.0 1012887
20:00+12зюз226988 0.0 1015155